Regional Weather Roundup
Issued by NWS

Home | Current Version | Previous Version | Graphics & Text | Print | Product List | Glossary On
Versions: 1 2 3 4 5 6 7 8 9 10 11 12 13 14 15 16 17 18 19 20 21 22 23 24 25 26 27 28 29 30 31 32 33 34 35 36 37 38 39 40 41 42 43 44 45 46 47 48 49 50
000
ASUS43 KLMK 221202
RWRKY
KENTUCKY REGIONAL WEATHER ROUNDUP
NATIONAL WEATHER SERVICE LOUISVILLE KY
800 AM EDT SUN OCT 22 2017

NOTE "FAIR" INDICATES FEW OR NO CLOUDS BELOW 12,000 FEET
WITH NO SIGNIFICANT WEATHER AND/OR OBSTRUCTIONS TO VISIBILITY.

KYZ001>023-026-027-061>063-070>075-221300-
WESTERN AND SOUTH CENTRAL KENTUCKY

CITY           SKY/WX    TMP DP  RH WIND       PRES   REMARKS
PADUCAH        CLOUDY    67  59  75 S8        30.01S
HENDERSON      CLOUDY    62  56  80 SE6       30.06S
OWENSBORO      PTCLDY    61  53  75 SE14      30.09F
HOPKINSVILLE   CLOUDY    63  55  76 SE8       30.08S
BOWLING GREEN  PTCLDY    55  53  93 CALM      30.14S
GLASGOW        CLOUDY    64  49  59 S8        30.16R
$$

KYZ024-025-028>034-038-045-046-053-221300-
NORTH CENTRAL KENTUCKY

CITY           SKY/WX    TMP DP  RH WIND       PRES   REMARKS
LOUISVILLE/SDF CLOUDY    57  49  74 E5        30.15R
LOUISVILLE/LOU PTCLDY    60  50  69 SE7       30.16R
FORT KNOX      CLOUDY    60  49  67 SE10      30.13S
$$

KYZ035>037-039>044-047>052-055>060-089>105-221300-
NORTHEAST KENTUCKY

CITY           SKY/WX    TMP DP  RH WIND       PRES   REMARKS
LEXINGTON      CLEAR     56  48  74 SE9       30.20S
COVINGTON      PTCLDY    56  49  77 S7        30.17S
FRANKFORT      PTCLDY    58  47  66 SE8       30.18R
$$

KYZ054-064>069-076>088-106>120-221300-
SOUTHEAST KENTUCKY

CITY           SKY/WX    TMP DP  RH WIND       PRES   REMARKS
JACKSON        CLEAR     53  47  79 E5        30.26S
LONDON         CLEAR     47  43  86 CALM      30.25R
SOMERSET       NOT AVBL
MIDDLESBORO    FOG       44  44 100 CALM      30.28S VSB<1/4
MONTICELLO     MOSUNNY   56  49  77 VRB7      30.24R
$$





USA.gov is the U.S. government's official web portal to all federal, state and local government web resources and services.